Regional Weather Roundup
Issued by NWS Charleston, SC

Current Version | Previous Version | Text Only | Print | Product List | Glossary Off
Versions: 1 2 3 4 5 6 7 8 9 10 11 12 13 14 15 16 17 18 19 20 21 22 23 24 25 26 27 28 29 30 31 32 33 34 35 36 37 38 39 40 41 42 43 44 45 46 47 48 49 50

000
ASUS42 KCHS 190627
RWRCHS

REGIONAL WEATHER ROUNDUP
NATIONAL WEATHER SERVICE CHARLESTON SC
200 AM EDT SAT AUG 19 2017

NOTE: "FAIR" INDICATES FEW OR NO CLOUDS BELOW 12,000 FEET WITH NO
SIGNIFICANT WEATHER AND/OR OBSTRUCTIONS TO VISIBILITY.

NOT ALL STATIONS ARE QUALITY CONTROLLED. USE DATA WITH CAUTION...
ESPECIALLY DEWPOINT OBSERVATIONS.

SCZ027-030-031-034>040-042>050-190700-
...SOUTHEAST SOUTH CAROLINA...

CITY           SKY/WX    TMP DP  RH WIND       PRES   REMARKS
N CHARLESTON   PTCLDY    81  78  91 S7        29.94F
6HR MIN TEMP:  81; 6HR MAX TEMP:  85;

WATERFRONT PRK   N/A    N/A N/A N/A SW8       29.79F
JOHNS ISLAND   FAIR      84  79  84 SW7       29.95F HX  96
PINOPOLIS        N/A     82  79  89 S5        29.87F HX  93
MONCKS CORNER  FAIR      81  77  89 SW7       29.94F
SUMMERVILLE    FAIR      81  77  89 S3        29.95S
BEAUFORT MCAS  CLEAR     82  75  79 SW7       29.95F
6HR MIN TEMP:  82; 6HR MAX TEMP:  88;

BEAUFORT ARPT  FAIR      81  73  78 SW6       29.95F
HILTON HEAD IS CLEAR     82  75  78 SW6       29.97S
WALTERBORO     MOCLDY    81  75  83 SW8       29.96S
ALLENDALE      NOT AVBL

...SOUTHERN MIDLANDS AND PEE DEE...

CITY           SKY/WX    TMP DP  RH WIND       PRES   REMARKS
GEORGETOWN     FAIR      79  79 100 SW3       29.96S
KINGSTREE      FAIR      77  75  94 CALM      29.93S
ORANGEBURG     MOCLDY    79  76  90 S3        29.94S
6HR MIN TEMP:  79; 6HR MAX TEMP:  86;

BARNWELL       FAIR      81  77  89 CALM      29.94F
AIKEN          FAIR      73  73 100 CALM      29.98S
MANNING        FAIR      81  79  94 NW21      29.94S
COLUMBIA       CLEAR     79  74  84 CALM      29.92S
6HR MIN TEMP:  79; 6HR MAX TEMP:  90;

SUMTER         PTCLDY    81  75  81 S5        29.91S
6HR MIN TEMP:  81; 6HR MAX TEMP:  89; 6HR PCP: TRACE;

FLORENCE       MOCLDY    81  78  91 SW8       29.94S
6HR MIN TEMP:  81; 6HR MAX TEMP:  88;

MYRTLE BEACH   NOT AVBL
N MYRTLE BEACH CLEAR     83  80  91 SW12      29.94S HX  95
6HR MIN TEMP:  82; 6HR MAX TEMP:  85;


$$

GAZ063-065-086>088-099>101-113>116-118-119-134>141-150-190700-
...SOUTHEAST GEORGIA...

CITY           SKY/WX    TMP DP  RH WIND       PRES   REMARKS
SAVANNAH ARPT  PTCLDY    80  74  81 SW8       29.97F
6HR MIN TEMP:  80; 6HR MAX TEMP:  87;

HUNTER AAF     CLEAR     79  73  83 SW6       29.94F
                                      6HR PCP: TRACE;

FORT STEWART   CLEAR     78  73  82 SW7       29.95F
6HR MIN TEMP:  78; 6HR MAX TEMP:  86;

STATESBORO     PTCLDY    80  72  75 W3        29.96F
SYLVANIA       MOCLDY    79  78  95 CALM      29.96F
CLAXTON        FAIR      80  75  84 CALM      29.97S

...CSRA...CENTRAL AND FAR SOUTHEAST GEORGIA...

CITY           SKY/WX    TMP DP  RH WIND       PRES   REMARKS
THOMSON        CLEAR     74  71  91 CALM      30.00S
AUGUSTA-BUSH   CLEAR     78  75  90 CALM      29.93S
6HR MIN TEMP:  77; 6HR MAX TEMP:  88;

AUGUSTA-DANIEL CLEAR     83  69  62 W3        29.95S
SWAINSBORO     FAIR      77  73  88 S3        29.98S
VIDALIA        CLEAR     79  75  89 SW6       29.98S
EASTMAN        FAIR      77  77  99 CALM      30.00S
HAZLEHURST     MOCLDY    80  75  86 SW5       29.97S
ALMA           PTCLDY    77  73  87 W3        29.98F
6HR MIN TEMP:  76; 6HR MAX TEMP:  84;

WAYCROSS       CLEAR     76  73  90 SW3       29.98F
JESUP          FAIR      77  72  83 CALM      29.98S
BAXLEY         FAIR      75  75 100 W3        29.98S
BRUNSWICK      PTCLDY    77  72  83 SW6       29.99S
SAINT SIMONS   CLEAR     79  75  87 SW9       29.99S
6HR MIN TEMP:  79; 6HR MAX TEMP:  84;


$$

SCZ027-028-034-036>038-045-046-048>050-GAZ119-141-190700-
...LAKE AND SUPPLEMENTAL COASTAL OBSERVATIONS...

STATION/POSITION TIME  TEMP    WIND        PRES    WAVE   SWELL
                       AIR SEA DIR/SP/G            HT/PER HT/PER/DIR
                 (UTC) (F)     (DEG/KT/KT) (MB)    (FT/S) (FT/S/D)
WINYAH BAY       0545   83     230/  7     1014.0S
LAKE MURRAY      0620   83     270/  6/  7 1012.5
ACE BASIN NERRS  0545   82        CALM     1014.0F
FORT PULASKI     0600   80 86  250/  5/  8 1015.0
SAPELO ISLAND    0600   79     230/  4     1015.0

$$

ANZ835-935-AMZ111-154-330-350-352-354-370-450-454-472-190700-
...C-MAN AND BUOY OBSERVATIONS...

STATION/POSITION TIME  TEMP    WIND        PRES    WAVE   SWELL
                       AIR SEA DIR/SP/G            HT/PER HT/PER/DIR
                 (UTC) (F)     (DEG/KT/KT) (MB)    (FT/S) (FT/S/D)
BUOY 41004       0610   84 85  210/ 16/ 19 1013.9
BUOY 41008       0550   83 85  220/ 14/ 16 1014.8F   2/ 8   2/ 90/ 8
FOLLY BEACH CMAN 0600   85     220/ 18/ 20 1014.8F
CAPERS NEARSHORE 0608   83 85  240/ 17/ 23 1013.8F
FRIPP NEARSHORE  0608   85     230/ 16/ 19 1013.9F


STATION/POSITION TIME  TEMP    WIND        PRES    WAVE   SWELL
                       AIR SEA DIR/SP/G            HT/PER HT/PER/DIR
                 (UTC) (F)     (DEG/KT/KT) (MB)    (FT/S) (FT/S/D)
5E ST. MARYS GA  0600      84                N/A     2/ 8
FRYING PAN BUOY  0610   84 84  230/ 16/ 19 1014.1
BUOY 41025       0550   85 85  230/ 19/ 25 1013.2F   5/ 6   2/340/10
CAPE LOOKOUT NC  0600   83     220/ 11/ 15 1013.4F
BUOY 41002       0550   84 84  220/ 16/ 17 1016.5F   4/ 7   2/100/ 8
BUOY 41010       0610   84 85  170/ 14/ 16 1016.1
ST AUGUSTINE FL  0600   76 81  240/  5/  6 1015.6F


$$




USA.gov is the U.S. government's official web portal to all federal, state and local government web resources and services.